Time,TemperatureF,DewpointF,PressureIn,WindDirection,WindDirectionDegrees,WindSpeedMPH,WindSpeedGustMPH,Humidity,HourlyPrecipIn,Conditions,Clouds,dailyrainin,SoftwareType,DateUTC
2013-02-09 00:02:00,16.0,14.0,29.69,ENE,76,4.0,10.0,92,0.00,,,0.00,,2013-02-09 05:02:00,
2013-02-09 00:12:00,16.0,14.0,29.69,ENE,76,4.0,10.0,92,0.00,,,0.00,,2013-02-09 05:12:00,
2013-02-09 00:22:00,16.0,14.0,29.66,ENE,57,3.0,11.0,92,0.00,,,0.00,,2013-02-09 05:22:00,
2013-02-09 00:32:00,16.0,14.0,29.66,ENE,57,3.0,11.0,92,0.00,,,0.00,,2013-02-09 05:32:00,
2013-02-09 00:42:00,16.0,14.0,29.66,ENE,57,3.0,11.0,92,0.00,,,0.00,,2013-02-09 05:42:00,
2013-02-09 00:52:00,15.0,13.0,29.65,WSW,254,4.0,13.0,92,0.00,,,0.00,,2013-02-09 05:52:00,
2013-02-09 01:02:00,15.0,13.0,29.65,WSW,254,4.0,13.0,92,0.00,,,0.00,,2013-02-09 06:02:00,
2013-02-09 01:11:00,15.0,13.0,29.65,WSW,254,4.0,13.0,92,0.00,,,0.00,,2013-02-09 06:11:00,
2013-02-09 01:21:00,15.0,13.0,29.63,North,360,6.0,9.0,92,0.00,,,0.00,,2013-02-09 06:21:00,
2013-02-09 01:32:00,15.0,13.0,29.63,North,360,6.0,9.0,92,0.00,,,0.00,,2013-02-09 06:32:00,
2013-02-09 01:42:00,15.0,13.0,29.63,North,360,6.0,9.0,92,0.00,,,0.00,,2013-02-09 06:42:00,
2013-02-09 01:52:00,14.0,12.0,29.63,NNW,333,4.0,9.0,92,0.00,,,0.00,,2013-02-09 06:52:00,
2013-02-09 02:01:00,14.0,12.0,29.63,NNW,333,4.0,9.0,92,0.00,,,0.00,,2013-02-09 07:01:00,
2013-02-09 02:11:00,14.0,12.0,29.63,NNW,333,4.0,9.0,92,0.00,,,0.00,,2013-02-09 07:11:00,
2013-02-09 02:21:00,14.0,12.0,29.63,NNE,15,5.0,12.0,91,0.00,,,0.00,,2013-02-09 07:21:00,
2013-02-09 02:31:00,14.0,12.0,29.63,NNE,15,5.0,12.0,91,0.00,,,0.00,,2013-02-09 07:31:00,
2013-02-09 02:42:00,14.0,12.0,29.63,NNE,15,5.0,12.0,91,0.00,,,0.00,,2013-02-09 07:42:00,
2013-02-09 02:52:00,14.0,12.0,29.61,West,263,4.0,11.0,92,0.00,,,0.00,,2013-02-09 07:52:00,
2013-02-09 03:01:00,14.0,12.0,29.61,West,263,4.0,11.0,92,0.00,,,0.00,,2013-02-09 08:01:00,
2013-02-09 03:11:00,14.0,12.0,29.61,West,263,4.0,11.0,92,0.00,,,0.00,,2013-02-09 08:11:00,
2013-02-09 03:21:00,14.0,12.0,29.60,NE,42,7.0,12.0,92,0.00,,,0.00,,2013-02-09 08:21:00,
2013-02-09 03:32:00,14.0,12.0,29.60,NE,42,7.0,12.0,92,0.00,,,0.00,,2013-02-09 08:32:00,
2013-02-09 03:42:00,14.0,12.0,29.60,NE,42,7.0,12.0,92,0.00,,,0.00,,2013-02-09 08:42:00,
2013-02-09 03:52:00,14.0,12.0,29.59,NE,38,5.0,11.0,92,0.00,,,0.00,,2013-02-09 08:52:00,
2013-02-09 04:03:00,14.0,12.0,29.59,NE,38,5.0,11.0,92,0.00,,,0.00,,2013-02-09 09:03:00,
2013-02-09 04:11:00,14.0,12.0,29.59,NE,38,5.0,11.0,92,0.00,,,0.00,,2013-02-09 09:11:00,
2013-02-09 04:22:00,15.0,13.0,29.58,North,355,5.0,10.0,92,0.00,,,0.00,,2013-02-09 09:22:00,
2013-02-09 04:32:00,15.0,13.0,29.58,North,355,5.0,10.0,92,0.00,,,0.00,,2013-02-09 09:32:00,
2013-02-09 04:42:00,15.0,13.0,29.58,North,355,5.0,10.0,92,0.00,,,0.00,,2013-02-09 09:42:00,
2013-02-09 04:52:00,15.0,13.0,29.59,NNE,12,4.0,10.0,92,0.00,,,0.00,,2013-02-09 09:52:00,
2013-02-09 05:01:00,15.0,13.0,29.59,NNE,12,4.0,10.0,92,0.00,,,0.00,,2013-02-09 10:01:00,
2013-02-09 05:11:00,15.0,13.0,29.59,NNE,12,4.0,10.0,92,0.00,,,0.00,,2013-02-09 10:11:00,
2013-02-09 05:21:00,15.0,13.0,29.60,ENE,71,2.0,8.0,92,0.00,,,0.00,,2013-02-09 10:21:00,
2013-02-09 05:32:00,15.0,13.0,29.60,ENE,71,2.0,8.0,92,0.00,,,0.00,,2013-02-09 10:32:00,
2013-02-09 05:42:00,15.0,13.0,29.60,ENE,71,2.0,8.0,92,0.00,,,0.00,,2013-02-09 10:42:00,
2013-02-09 05:52:00,15.0,13.0,29.61,NE,49,2.0,8.0,92,0.00,,,0.00,,2013-02-09 10:52:00,
2013-02-09 06:01:00,15.0,13.0,29.61,NE,49,2.0,8.0,92,0.00,,,0.00,,2013-02-09 11:01:00,
2013-02-09 06:11:00,15.0,13.0,29.61,NE,49,2.0,8.0,92,0.00,,,0.00,,2013-02-09 11:11:00,
2013-02-09 06:22:00,15.0,13.0,29.61,NNW,339,4.0,9.0,92,0.00,,,0.00,,2013-02-09 11:22:00,
2013-02-09 06:32:00,15.0,13.0,29.61,NNW,339,4.0,9.0,92,0.00,,,0.00,,2013-02-09 11:32:00,
2013-02-09 06:42:00,15.0,13.0,29.61,NNW,339,4.0,9.0,92,0.00,,,0.00,,2013-02-09 11:42:00,
2013-02-09 06:52:00,16.0,14.0,29.63,NE,44,4.0,8.0,92,0.00,,,0.00,,2013-02-09 11:52:00,
2013-02-09 07:02:00,16.0,14.0,29.63,NE,44,4.0,8.0,92,0.00,,,0.00,,2013-02-09 12:02:00,
2013-02-09 07:11:00,16.0,14.0,29.63,NE,44,4.0,8.0,92,0.00,,,0.00,,2013-02-09 12:11:00,
2013-02-09 07:22:00,16.0,14.0,29.65,ESE,115,2.0,6.0,93,0.00,,,0.00,,2013-02-09 12:22:00,
2013-02-09 07:32:00,16.0,14.0,29.65,ESE,115,2.0,6.0,93,0.00,,,0.00,,2013-02-09 12:32:00,
2013-02-09 07:42:00,16.0,14.0,29.65,ESE,115,2.0,6.0,93,0.00,,,0.00,,2013-02-09 12:42:00,
2013-02-09 07:53:00,16.0,14.0,29.65,NE,47,4.0,10.0,92,0.00,,,0.00,,2013-02-09 12:53:00,
2013-02-09 08:02:00,16.0,14.0,29.65,NE,47,4.0,10.0,92,0.00,,,0.00,,2013-02-09 13:02:00,
2013-02-09 08:11:00,16.0,14.0,29.65,NE,47,4.0,10.0,92,0.00,,,0.00,,2013-02-09 13:11:00,
2013-02-09 08:22:00,17.0,15.0,29.67,SSE,152,1.0,7.0,93,0.00,,,0.00,,2013-02-09 13:22:00,
2013-02-09 08:32:00,17.0,15.0,29.67,SSE,152,1.0,7.0,93,0.00,,,0.00,,2013-02-09 13:32:00,
2013-02-09 08:42:00,17.0,15.0,29.67,SSE,152,1.0,7.0,93,0.00,,,0.00,,2013-02-09 13:42:00,
2013-02-09 08:52:00,17.0,15.0,29.68,NE,54,2.0,8.0,93,0.00,,,0.00,,2013-02-09 13:52:00,
2013-02-09 09:01:00,17.0,15.0,29.68,NE,54,2.0,8.0,93,0.00,,,0.00,,2013-02-09 14:01:00,
2013-02-09 09:11:00,17.0,15.0,29.68,NE,54,2.0,8.0,93,0.00,,,0.00,,2013-02-09 14:11:00,
2013-02-09 09:21:00,18.0,16.0,29.70,ENE,59,4.0,8.0,93,0.00,,,0.00,,2013-02-09 14:21:00,
2013-02-09 09:32:00,18.0,16.0,29.70,ENE,59,4.0,8.0,93,0.00,,,0.00,,2013-02-09 14:32:00,
2013-02-09 09:42:00,18.0,16.0,29.70,ENE,59,4.0,8.0,93,0.00,,,0.00,,2013-02-09 14:42:00,
2013-02-09 09:52:00,18.0,16.0,29.71,NNE,22,2.0,7.0,93,0.00,,,0.00,,2013-02-09 14:52:00,
2013-02-09 10:02:00,18.0,16.0,29.71,NNE,22,2.0,7.0,93,0.00,,,0.00,,2013-02-09 15:02:00,
2013-02-09 10:11:00,18.0,16.0,29.71,NNE,22,2.0,7.0,93,0.00,,,0.00,,2013-02-09 15:11:00,
2013-02-09 10:22:00,18.0,16.0,29.72,North,11,2.0,8.0,93,0.00,,,0.00,,2013-02-09 15:22:00,
2013-02-09 10:32:00,18.0,16.0,29.72,North,11,2.0,8.0,93,0.00,,,0.00,,2013-02-09 15:32:00,
2013-02-09 10:42:00,18.0,16.0,29.72,North,11,2.0,8.0,93,0.00,,,0.00,,2013-02-09 15:42:00,
2013-02-09 10:52:00,19.0,17.0,29.73,East,82,1.0,6.0,93,0.00,,,0.00,,2013-02-09 15:52:00,
2013-02-09 11:01:00,19.0,17.0,29.73,East,82,1.0,6.0,93,0.00,,,0.00,,2013-02-09 16:01:00,
2013-02-09 11:11:00,19.0,17.0,29.73,East,82,1.0,6.0,93,0.00,,,0.00,,2013-02-09 16:11:00,
2013-02-09 11:22:00,19.0,17.0,29.73,East,82,1.0,6.0,93,0.00,,,0.00,,2013-02-09 16:22:00,
2013-02-09 11:32:00,19.0,17.0,29.73,East,82,1.0,6.0,93,0.00,,,0.00,,2013-02-09 16:32:00,
2013-02-09 12:22:00,21.0,19.0,29.75,ENE,63,3.0,8.0,93,0.00,,,0.00,,2013-02-09 17:22:00,
2013-02-09 12:32:00,21.0,19.0,29.75,ENE,63,3.0,8.0,93,0.00,,,0.00,,2013-02-09 17:32:00,
2013-02-09 12:42:00,21.0,19.0,29.75,ENE,63,3.0,8.0,93,0.00,,,0.00,,2013-02-09 17:42:00,
2013-02-09 12:52:00,21.0,19.0,29.76,ENE,68,2.0,15.0,93,0.00,,,0.00,,2013-02-09 17:52:00,
2013-02-09 13:02:00,21.0,19.0,29.76,ENE,68,2.0,15.0,93,0.00,,,0.00,,2013-02-09 18:02:00,
2013-02-09 13:12:00,21.0,19.0,29.76,ENE,68,2.0,15.0,93,0.00,,,0.00,,2013-02-09 18:12:00,
2013-02-09 13:23:00,22.0,20.0,29.78,ENE,61,4.0,10.0,92,0.00,,,0.00,,2013-02-09 18:23:00,
2013-02-09 13:32:00,22.0,20.0,29.78,ENE,61,4.0,10.0,92,0.00,,,0.00,,2013-02-09 18:32:00,
2013-02-09 13:42:00,22.0,20.0,29.78,ENE,61,4.0,10.0,92,0.00,,,0.00,,2013-02-09 18:42:00,
2013-02-09 13:52:00,22.0,20.0,29.79,ENE,78,3.0,14.0,92,0.00,,,0.00,,2013-02-09 18:52:00,
2013-02-09 14:01:00,22.0,20.0,29.79,ENE,78,3.0,14.0,92,0.00,,,0.00,,2013-02-09 19:01:00,
2013-02-09 14:11:00,22.0,20.0,29.79,ENE,78,3.0,14.0,92,0.00,,,0.00,,2013-02-09 19:11:00,
2013-02-09 14:22:00,23.0,21.0,29.81,ENE,67,1.0,5.0,92,0.00,,,0.00,,2013-02-09 19:22:00,
2013-02-09 14:32:00,23.0,21.0,29.81,ENE,67,1.0,5.0,92,0.00,,,0.00,,2013-02-09 19:32:00,
2013-02-09 14:42:00,23.0,21.0,29.81,ENE,67,1.0,5.0,92,0.00,,,0.00,,2013-02-09 19:42:00,
2013-02-09 14:52:00,22.0,20.0,29.83,ENE,67,4.0,6.0,91,0.00,,,0.00,,2013-02-09 19:52:00,
2013-02-09 15:02:00,22.0,20.0,29.83,ENE,67,4.0,6.0,91,0.00,,,0.00,,2013-02-09 20:02:00,
2013-02-09 15:11:00,22.0,20.0,29.83,ENE,67,4.0,6.0,91,0.00,,,0.00,,2013-02-09 20:11:00,
2013-02-09 15:21:00,22.0,20.0,29.86,ENE,72,2.0,5.0,91,0.00,,,0.00,,2013-02-09 20:21:00,
2013-02-09 15:32:00,22.0,20.0,29.86,ENE,72,2.0,5.0,91,0.00,,,0.00,,2013-02-09 20:32:00,
2013-02-09 15:42:00,22.0,20.0,29.86,ENE,72,2.0,5.0,91,0.00,,,0.00,,2013-02-09 20:42:00,
2013-02-09 15:52:00,22.0,19.0,29.88,ENE,76,2.0,9.0,89,0.00,,,0.00,,2013-02-09 20:52:00,
2013-02-09 16:02:00,22.0,19.0,29.88,ENE,76,2.0,9.0,89,0.00,,,0.00,,2013-02-09 21:02:00,
2013-02-09 16:12:00,22.0,19.0,29.88,ENE,76,2.0,9.0,89,0.00,,,0.00,,2013-02-09 21:12:00,
2013-02-09 16:22:00,22.0,20.0,29.90,ENE,59,2.0,6.0,90,0.00,,,0.00,,2013-02-09 21:22:00,
2013-02-09 16:32:00,22.0,20.0,29.90,ENE,59,2.0,6.0,90,0.00,,,0.00,,2013-02-09 21:32:00,
2013-02-09 16:42:00,22.0,20.0,29.90,ENE,59,2.0,6.0,90,0.00,,,0.00,,2013-02-09 21:42:00,
2013-02-09 16:52:00,20.0,17.0,29.93,ENE,70,1.0,5.0,89,0.00,,,0.00,,2013-02-09 21:52:00,
2013-02-09 17:01:00,20.0,17.0,29.93,ENE,70,1.0,5.0,89,0.00,,,0.00,,2013-02-09 22:01:00,
2013-02-09 17:11:00,20.0,17.0,29.93,ENE,70,1.0,5.0,89,0.00,,,0.00,,2013-02-09 22:11:00,
2013-02-09 17:22:00,19.0,16.0,29.95,NE,48,1.0,5.0,89,0.00,,,0.00,,2013-02-09 22:22:00,
2013-02-09 17:32:00,19.0,16.0,29.95,NE,48,1.0,5.0,89,0.00,,,0.00,,2013-02-09 22:32:00,
2013-02-09 17:42:00,19.0,16.0,29.95,NE,48,1.0,5.0,89,0.00,,,0.00,,2013-02-09 22:42:00,
2013-02-09 17:52:00,19.0,17.0,29.97,ENE,67,1.0,5.0,90,0.00,,,0.00,,2013-02-09 22:52:00,
2013-02-09 18:02:00,19.0,17.0,29.97,ENE,67,1.0,5.0,90,0.00,,,0.00,,2013-02-09 23:02:00,
2013-02-09 18:11:00,19.0,17.0,29.97,ENE,67,1.0,5.0,90,0.00,,,0.00,,2013-02-09 23:11:00,
2013-02-09 18:22:00,19.0,16.0,29.99,WSW,242,2.0,4.0,89,0.00,,,0.00,,2013-02-09 23:22:00,
2013-02-09 18:32:00,19.0,16.0,29.99,WSW,242,2.0,4.0,89,0.00,,,0.00,,2013-02-09 23:32:00,
2013-02-09 18:42:00,19.0,16.0,29.99,WSW,242,2.0,4.0,89,0.00,,,0.00,,2013-02-09 23:42:00,
2013-02-09 18:52:00,18.0,15.0,30.01,North,360,2.0,4.0,89,0.00,,,0.00,,2013-02-09 23:52:00,
2013-02-09 19:02:00,18.0,15.0,30.01,North,360,2.0,4.0,89,0.00,,,0.00,,2013-02-10 00:02:00,
2013-02-09 19:12:00,18.0,15.0,30.01,North,360,2.0,4.0,89,0.00,,,0.00,,2013-02-10 00:12:00,
2013-02-09 19:22:00,18.0,15.0,30.02,SE,126,1.0,7.0,87,0.00,,,0.00,,2013-02-10 00:22:00,
2013-02-09 19:32:00,18.0,15.0,30.02,SE,126,1.0,7.0,87,0.00,,,0.00,,2013-02-10 00:32:00,
2013-02-09 19:42:00,18.0,15.0,30.02,SE,126,1.0,7.0,87,0.00,,,0.00,,2013-02-10 00:42:00,
2013-02-09 19:52:00,17.0,14.0,30.03,East,97,1.0,5.0,87,0.00,,,0.00,,2013-02-10 00:52:00,
2013-02-09 20:01:00,17.0,14.0,30.03,East,97,1.0,5.0,87,0.00,,,0.00,,2013-02-10 01:01:00,
2013-02-09 20:12:00,17.0,14.0,30.03,East,97,1.0,5.0,87,0.00,,,0.00,,2013-02-10 01:12:00,
2013-02-09 20:22:00,16.0,13.0,30.05,ESE,120,0.0,3.0,87,0.00,,,0.00,,2013-02-10 01:22:00,
2013-02-09 20:32:00,16.0,13.0,30.05,ESE,120,0.0,3.0,87,0.00,,,0.00,,2013-02-10 01:32:00,
2013-02-09 20:42:00,16.0,13.0,30.05,ESE,120,0.0,3.0,87,0.00,,,0.00,,2013-02-10 01:42:00,
2013-02-09 20:52:00,15.0,12.0,30.06,NNE,15,1.0,5.0,87,0.00,,,0.00,,2013-02-10 01:52:00,
2013-02-09 21:01:00,15.0,12.0,30.06,NNE,15,1.0,5.0,87,0.00,,,0.00,,2013-02-10 02:01:00,
2013-02-09 21:11:00,15.0,12.0,30.06,NNE,15,1.0,5.0,87,0.00,,,0.00,,2013-02-10 02:11:00,
2013-02-09 21:22:00,14.0,11.0,30.08,NNW,334,0.0,2.0,88,0.00,,,0.00,,2013-02-10 02:22:00,
2013-02-09 21:32:00,14.0,11.0,30.08,NNW,334,0.0,2.0,88,0.00,,,0.00,,2013-02-10 02:32:00,
2013-02-09 21:42:00,14.0,11.0,30.08,NNW,334,0.0,2.0,88,0.00,,,0.00,,2013-02-10 02:42:00,
2013-02-09 21:52:00,14.0,11.0,30.09,South,171,0.0,2.0,87,0.00,,,0.00,,2013-02-10 02:52:00,
2013-02-09 22:02:00,14.0,11.0,30.09,South,171,0.0,2.0,87,0.00,,,0.00,,2013-02-10 03:02:00,
2013-02-09 22:11:00,14.0,11.0,30.09,South,171,0.0,2.0,87,0.00,,,0.00,,2013-02-10 03:11:00,
2013-02-09 22:22:00,13.0,10.0,30.09,ESE,121,0.0,2.0,88,0.00,,,0.00,,2013-02-10 03:22:00,
2013-02-09 22:32:00,13.0,10.0,30.09,ESE,121,0.0,2.0,88,0.00,,,0.00,,2013-02-10 03:32:00,
2013-02-09 22:42:00,13.0,10.0,30.09,ESE,121,0.0,2.0,88,0.00,,,0.00,,2013-02-10 03:42:00,
2013-02-09 22:52:00,12.0,9.0,30.10,ESE,121,0.0,2.0,87,0.00,,,0.00,,2013-02-10 03:52:00,
2013-02-09 23:01:00,12.0,9.0,30.10,ESE,121,0.0,2.0,87,0.00,,,0.00,,2013-02-10 04:01:00,
2013-02-09 23:11:00,12.0,9.0,30.10,ESE,121,0.0,2.0,87,0.00,,,0.00,,2013-02-10 04:11:00,
2013-02-09 23:22:00,11.0,8.0,30.11,ESE,121,0.0,1.0,87,0.00,,,0.00,,2013-02-10 04:22:00,
2013-02-09 23:32:00,11.0,8.0,30.11,ESE,121,0.0,1.0,87,0.00,,,0.00,,2013-02-10 04:32:00,
2013-02-09 23:42:00,11.0,8.0,30.11,ESE,121,0.0,1.0,87,0.00,,,0.00,,2013-02-10 04:42:00,
2013-02-09 23:52:00,10.0,7.0,30.12,ESE,121,0.0,0.0,87,0.00,,,0.00,,2013-02-10 04:52:00,